Flag for Mozambique Weather past 2 weeks in Nampula, Mozambique

Now
64 °F

Passing clouds.


Feels Like: 64 °F
Forecast: 60 / 79 °F
Wind: 3 mph from South

Location: Nampula Airport

Current Time: Aug 1, 2014 at 1:43:23 AM

Latest Report: Aug 1, 2014 at 1:00 AM


Visibility: N/A

Pressure: 30.24 "Hg

Humidity: 94%

Dew point: 63 °F

Location of NampulaLocation

Historic Weather in Nampula — Graph

°F

Nampula temperature yesterday

Maximum temperature yesterday: 79 °F (at 2:00 PM)
Minimum temperature yesterday: 64 °F (at 3:00 AM)
Average temperature yesterday: 71 °F

Past Weeks' High & Low Weather Summary

 TemperatureHumidityPressure
High84 °F (Jul 19, 2:00 PM)100% (Jul 17, 5:00 AM)30.30 "Hg (Jul 17, 5:00 AM)
Low61 °F (Jul 17, 7:00 AM)45% (Jul 19, 2:00 PM)29.83 "Hg (Jul 26, 2:00 PM)
Average71 °F76%30.16 "Hg
* Reported Jul 17 4:00 AM — Midnight between Jul 31 and Aug 1, Nampula, Weather by CustomWeather, © 2014

Note: Actual official high and low records may vary slightly from our data, if they occured in-between our weather recording intervals... More about our weather records

Advertising

Nampula weather history for previous 24 hours

 ConditionsComfort  
Time TempWeatherWind HumidityBarometerVisibility
12:00 AM
Aug 1
66 °FPassing clouds.5 mph94%30.27 "HgN/A
11:00 PM
Jul 31
66 °FPassing clouds.6 mph94%30.27 "HgN/A
8:00 PM73 °FClear.9 mph61%30.18 "Hg10 mi
6:00 PM75 °FClear.5 mph57%30.15 "Hg10 mi
5:00 PM77 °FScattered clouds.5 mph57%30.12 "HgN/A
4:00 PM79 °FPartly sunny.5 mph61%30.15 "HgN/A
3:00 PM79 °FPartly sunny.6 mph61%30.18 "HgN/A
2:00 PM79 °FScattered clouds.7 mph51%30.18 "HgN/A
1:00 PM77 °FScattered clouds.7 mph51%30.21 "HgN/A
12:00 PM75 °FScattered clouds.8 mph57%30.21 "HgN/A
11:00 AM73 °FScattered clouds.13 mph61%30.24 "HgN/A
10:00 AM72 °FScattered clouds.12 mph69%30.27 "HgN/A
9:00 AM70 °FPassing clouds.13 mph73%30.24 "HgN/A
8:00 AM66 °FPassing clouds.10 mph83%30.24 "HgN/A
7:00 AM64 °FPassing clouds.8 mph94%30.21 "HgN/A
6:00 AM64 °FScattered clouds.9 mph94%30.21 "HgN/A
5:00 AM64 °FPassing clouds.8 mph94%30.18 "HgN/A
4:00 AM64 °FPartly cloudy.9 mph94%30.18 "HgN/A
3:00 AM64 °FPassing clouds.5 mph88%30.21 "HgN/A
Weather by CustomWeather, © 2014

See weather overviewHow to use our weather pages